Location: Castle
(40.7167°S, 175.9500°E)
Time: 07:23:28
(UTC+00:00)

VELOX 1 - Pass Details

Date: 06 December 2024
Orbit: 590 x 602 km, 98.3° (Epoch: 18 January)

Event Time Altitude Azimuth Distance (km) Brightness Sun altitude
Exits shadow 08:05:23 - 24° (NNE) 2,581 ? -5.4°
Reaches altitude 10° 08:06:56 10° 26° (NNE) 1,945 ? -5.7°
Maximum altitude 08:11:06 62° 106° (ESE) 684 ? -6.3°
Drops below altitude 10° 08:15:19 10° 186° (S) 1,964 ? -6.9°
Sets 08:17:31 0° 189° (S) 2,872 ? -7.2°
